Location: downtown San Diego
(32.7310°N, 117.1990°W)
Time: 14:52:59
(UTC-08:00)

Atlas Centaur 2 - Pass Details

Date: 12 July 2018
Orbit: 459 x 1311 km, 30.4° (Epoch: 19 November)

Event Time Altitude Azimuth Distance (km) Brightness Sun altitude
Rises 20:56:28 0° 247° (WSW) 4,192 6.3 -11.2°
Reaches altitude 10° 20:59:36 10° 243° (WSW) 3,146 5.5 -11.8°
Maximum altitude 21:07:15 58° 167° (SSE) 1,219 2.8 -13.1°
Enters shadow 21:13:04 12° 91° (E) 2,439 4.1 -14.0°
